QZS-1 (MICHIBIKI) (37158 NORAD) Tracking and Keplerian Element Data

This shows tracking and keplerian element data for the satellite.

Feedback or suggestion? Click here.




ElementValue
Catalog37158
NameQZS-1 (MICHIBIKI)
Epoch Orbit3026
Epoch Day347.79027529
Epoch Year2018
RAAN151.4604
Inclination41.1933
Eccentricity0.0750843
Argument of Perigee270.4239
Mean Anonmoly80.9406
Mean Motion1.00277014
Decay Rate-9E-07
L11 37158U 10045A 18347.79027529 -.00000090 00000-0 00000-0 0 9998
L22 37158 41.1933 151.4604 0750843 270.4239 80.9406 1.00277014 30262

Live tracking and technical data element details for QZS-1 (MICHIBIKI) (NORAD 37158). QZS-1 (MICHIBIKI) can be tracked NOW for your location showing map with azimuth and elevation plus other details from your city location.

Track the satellite on the map from your city or location and see movement details for azimuth, elevation, latitude, longitude, range, height, and movement on the map or in text.







IsCatalogInMostPopularTable: catalog: 37158, numindb: 82
Update: records affected: 1



GetName: 37158 QZS-1 (MICHIBIKI)

Hit Count: updated at: Sat, 15 Dec 2018 14:30:18 GMT